Miscellaneous Local Product
Issued by NWS Hastings, NE

Home | Current Version | Previous Version | Graphics & Text | Print | Product List | Glossary On
Versions: 1 2 3 4 5 6 7 8 9 10 11 12 13 14 15 16 17 18 19 20 21 22 23 24 25 26 27 28 29 30 31 32 33 34 35 36 37 38 39 40 41 42 43 44 45 46 47 48 49 50
000
AXUS43 KGID 012202
MISGRI

GID CWA HOURLY WEATHER ROUNDUP
NATIONAL WEATHER SERVICE HASTINGS NE
400 PM CST SUN MAR 01 2015

NOTE: "FAIR" INDICATES FEW OR NO CLOUDS BELOW 12,000 FEET WITH NO
SIGNIFICANT WEATHER AND/OR OBSTRUCTIONS TO VISIBILITY.

...SOUTH CENTRAL NEBRASKA...

CITY           SKY/WX    TMP DP  RH WIND       PRES   REMARKS
GRAND ISLAND   SUNNY     40  13  33 NW10      30.33S WCI  33
HASTINGS       SUNNY     39  10  30 N8        30.32R WCI  33
KEARNEY        SUNNY     39  10  30 N6        30.32S WCI  35
ORD            SUNNY     38  11  32 NW10G21   30.30S WCI  31
YORK           SUNNY     39  12  33 NW6       30.34R WCI  35
AURORA         SUNNY     39  11  31 N8        30.32S WCI  34
LEXINGTON      SUNNY     40  12  32 N8        30.31R WCI  34
HOLDREGE       SUNNY     38   9  30 N6        30.31S WCI  33
HEBRON         SUNNY     39  13  35 NE5       30.36R

...NEBRASKA PANHANDLE...

CITY           SKY/WX    TMP DP  RH WIND       PRES   REMARKS
CHADRON        SUNNY     34   8  33 NW16G24   30.26R WCI  24
ALLIANCE       SUNNY     35   8  32 VRB5      30.24R WCI  31
SCOTTSBLUFF    MOSUNNY   36  11  35 NW9       30.25S WCI  29
SIDNEY         MOSUNNY   33  13  43 NW9       30.25R WCI  25

...WESTERN AND NORTH CENTRAL NEBRASKA...

CITY           SKY/WX    TMP DP  RH WIND       PRES   REMARKS
VALENTINE      MOSUNNY   35   7  31 NW13      30.29R WCI  26
AINSWORTH      MOSUNNY   33   7  33 NW15      30.29S WCI  23
ONEILL         CLOUDY    37  10  31 NW20      30.31S WCI  27
BROKEN BOW     SUNNY     39  14  36 NW8       30.29S WCI  33
IMPERIAL         N/A     37  12  35 N6        30.28R WCI  32
NORTH PLATTE   SUNNY     39  12  33 NW7       30.29R WCI  34
MCCOOK         SUNNY     41  10  28 N10       30.30R

...EASTERN NEBRASKA...

CITY           SKY/WX    TMP DP  RH WIND       PRES   REMARKS
NORFOLK        SUNNY     39  12  33 NW16      30.31S WCI  30
SO SIOUX CITY  PTSUNNY   39  15  37 NW15      30.33S WCI  31
TEKAMAH        SUNNY     40  16  37 NW16      30.35R WCI  31
COLUMBUS       SUNNY     39  12  33 NW17G23   30.34S WCI  30
ALBION         SUNNY     39  10  30 NW17G24   30.31S WCI  30
OMAHA EPPLEY   MOSUNNY   39  16  39 NW9       30.35S WCI  33
OFFUTT AFB     SUNNY     38  15  37 W8        30.34F WCI  33
MILLARD        SUNNY     39  15  37 NW8       30.34F WCI  33
LINCOLN        SUNNY     42  14  32 NW9       30.36S
NEBRASKA CITY  SUNNY     37  10  32 NW5       30.36R WCI  34
BEATRICE       SUNNY     38  19  47 N3G16     30.35S
FALLS CITY     MOSUNNY   37  18  46 VRB3      30.36S

...NORTHERN KANSAS...

CITY           SKY/WX    TMP DP  RH WIND       PRES   REMARKS
GOODLAND       PTSUNNY   33  17  51 NE10      30.27R WCI  25
HILL CITY      PTSUNNY   35  19  52 VRB3      30.33F
NORTON         CLEAR     39   9  28 N7        30.31  WCI  34
PHILLIPSBURG   SUNNY     43  16  33 N6        30.33S
SMITH CENTER   SUNNY     37  16  41 N7        30.33F WCI  32
BELOIT         SUNNY     37  19  48 CALM      30.36S
HAYS           MOSUNNY   32  14  47 NW7       30.35S WCI  26
RUSSELL        PTSUNNY   35  20  54 NW8       30.34S WCI  29
CONCORDIA      MOSUNNY   36  21  54 N6        30.35F WCI  31
SALINA         PTSUNNY   36  20  52 N9        30.39R WCI  29
TOPEKA         PTSUNNY   35  21  56 VRB6      30.39F WCI  30



USA.gov is the U.S. government's official web portal to all federal, state and local government web resources and services.